Location: Bougoudala
(13.2282°N, 4.9477°W)
Time: 11:35:43
(UTC+00:00)

ATLAS CENTAUR R/B - Pass Details

Date: 29 January 2020
Orbit: 461 x 687 km, 64.6° (Epoch: 12 February)

Event Time Altitude Azimuth Distance (km) Brightness Sun altitude
Rises 19:23:55 0° 336° (NNW) 2,552 4.8 -16.0°
Reaches altitude 10° 19:26:05 10° 335° (NNW) 1,646 3.9 -16.5°
Maximum altitude 19:29:43 84° 249° (WSW) 471 0.9 -17.3°
Drops below altitude 10° 19:33:15 10° 159° (SSE) 1,599 3.6 -18.2°
Sets 19:35:21 0° 159° (SSE) 2,470 4.6 -18.6°
